[[{"header":{"parameterUnit":"m.s-1","parameterCategory":1,"la1":30.2991,"la2":30.254,"lo1":-89.0895,"lo2":-89.0444,"dy":0.0017,"dx":0.0017,"nx":28,"ny":28,"refTime":"2024-02-20T03:00:00:Z","depth":0,"parameterNumber":2,"parameterNumberName":"U-component_of_WINDS"},"data":[0,0,0,0,0,0,0,0,0,0,0,0,0,0,0,0,0,0,0,0,0,0,0,0,0,0,0,0,0,0,0,0,0,0,0,0,0,0,0,0,0,0,0,0,0,0,0,0,0,0,0,0,0,0,0,0,0,0,-1.2986,-1.2985,0,-1.2949,-1.2948,-1.2948,-1.2928,-1.2928,-1.2928,-1.2928,-1.2891,-1.289,-1.2889,0,0,0,0,0,0,0,0,0,0,0,0,0,-1.304,-1.3039,-1.2986,-1.2985,-1.2985,-1.2949,-1.2948,-1.2948,-1.2928,-1.2928,-1.2928,-1.2928,-1.2891,-1.289,-1.2889,0,0,0,0,0,0,0,0,0,0,0,0,0,-1.3011,-1.3039,-1.2986,-1.297,-1.2969,-1.2949,-1.2948,-1.2948,-1.2928,-1.2928,-1.2928,-1.2928,-1.2891,-1.289,-1.2889,-1.2882,0,0,-1.2884,-1.2884,0,0,0,0,0,0,0,0,-1.3013,-1.3009,-1.2973,-1.2971,-1.2969,-1.2943,-1.2954,-1.2926,-1.2928,-1.2943,-1.2928,-1.2928,-1.2908,-1.2905,-1.2899,-1.288,-1.2878,-1.2884,-1.2883,-1.2883,-1.2882,0,0,0,0,0,0,0,-1.3015,-1.301,-1.2971,-1.2973,-1.297,-1.2966,-1.2962,-1.2948,-1.2927,-1.2942,-1.2941,-1.2937,-1.2907,-1.29,-1.2898,-1.2878,-1.2884,-1.2883,-1.2882,-1.2882,-1.2852,-1.2852,0,0,0,0,0,0,-1.3019,-1.3012,-1.2972,-1.297,-1.2991,-1.2965,-1.296,-1.2952,-1.2927,-1.2923,-1.2937,-1.2936,-1.2903,-1.2899,-1.2896,-1.2887,-1.2883,-1.2882,-1.2881,-1.2852,-1.2852,-1.2852,0,0,0,0,0,0,-1.302,-1.3016,-1.2974,-1.2991,-1.2985,-1.2964,-1.2954,-1.2951,-1.2944,-1.2923,-1.2919,-1.2933,-1.2902,-1.2898,-1.2886,-1.2885,-1.2881,-1.288,-1.2852,-1.2852,-1.2852,-1.2867,0,0,0,0,0,0,-1.3022,-1.3016,-1.3013,-1.2991,-1.2984,-1.2963,-1.2954,-1.295,-1.2941,-1.294,-1.2918,-1.2915,-1.2902,-1.2888,-1.2884,-1.2883,-1.2878,-1.2852,-1.2852,-1.2852,-1.2867,-1.2868,-1.2869,0,0,0,0,0,-1.3024,-1.3018,-1.3013,-1.3008,-1.2979,-1.2963,-1.2959,-1.2945,-1.2941,-1.2938,-1.2925,-1.2916,-1.2886,-1.2887,-1.2882,-1.2881,-1.2852,-1.2852,-1.2852,-1.2866,-1.2868,-1.2869,0,0,0,0,0,0,-1.304,-1.3015,-1.3008,-1.2996,-1.2982,-1.296,-1.2955,-1.2946,-1.2933,-1.2932,-1.2915,-1.291,-1.2899,-1.2889,-1.289,-1.2873,-1.2868,-1.2868,-1.288,-1.2881,-1.2883,-1.2885,-1.2877,0,0,0,0,0,-1.3043,-1.3031,-1.301,-1.3001,-1.2994,-1.2976,-1.2968,-1.2958,-1.2943,-1.2937,-1.2923,-1.2909,-1.2896,-1.2888,-1.2876,-1.2866,-1.2861,-1.2863,-1.2864,-1.2865,-1.2864,-1.2859,-1.2859,-1.2853,-1.2853,-1.2853,0,0,-1.3047,-1.3032,-1.3025,-1.3004,-1.2991,-1.298,-1.2971,-1.2959,-1.2951,-1.2935,-1.2922,-1.2912,-1.2895,-1.2884,-1.2878,-1.2875,-1.2865,-1.2865,-1.2866,-1.2865,-1.2859,-1.286,-1.286,-1.2853,-1.2853,-1.2853,0,0,-1.3049,-1.3036,-1.3027,-1.3016,-1.2998,-1.2986,-1.2984,-1.2964,-1.2956,-1.2943,-1.2931,-1.2922,-1.2901,-1.2889,-1.2881,-1.2881,-1.2872,-1.2878,-1.2883,-1.2878,-1.2878,-1.2879,-1.2879,-1.2879,-1.2877,-1.2877,-1.2877,0,-1.3057,-1.3039,-1.3024,-1.3013,-1.3004,-1.299,-1.2981,-1.2971,-1.295,-1.2944,-1.2941,-1.2915,-1.2903,-1.2889,-1.289,-1.2883,-1.2881,-1.2879,-1.2879,-1.288,-1.288,-1.288,-1.288,-1.2878,-1.2878,-1.2878,-1.2878,0,-1.3049,-1.3038,-1.3033,-1.3013,-1.3004,-1.2994,-1.2978,-1.2971,-1.2962,-1.2951,-1.2938,-1.2924,-1.2908,-1.2904,-1.2896,-1.289,-1.2888,-1.2883,-1.2877,-1.2881,-1.2881,-1.2881,-1.2879,-1.2879,-1.2878,-1.2878,0,0,-1.306,-1.3033,-1.3031,-1.3022,-1.3002,-1.2993,-1.2984,-1.2969,-1.2963,-1.2949,-1.2941,-1.2924,-1.2919,-1.291,-1.29,-1.2896,-1.2897,-1.2891,-1.289,-1.2892,-1.289,-1.2894,-1.2894,-1.2892,-1.2892,-1.2892,-1.2892,0,-1.3059,-1.304,-1.3027,-1.3014,-1.3003,-1.299,-1.2982,-1.2969,-1.2959,-1.2949,-1.2938,-1.2926,-1.292,-1.2915,-1.291,-1.2898,-1.2896,-1.2898,-1.2884,-1.2884,-1.2888,-1.2894,-1.2898,-1.2899,-1.2891,-1.2891,-1.2891,0,-1.3055,-1.3042,-1.3027,-1.3009,-1.3005,-1.2997,-1.2983,-1.2973,-1.2959,-1.2952,-1.2943,-1.2933,-1.2923,-1.2919,-1.2906,-1.2907,-1.2901,-1.2894,-1.2894,-1.2891,-1.2887,-1.2892,-1.2898,-1.2898,-1.2891,-1.2891,-1.2891,0,-1.3063,-1.3043,-1.3031,-1.3025,-1.3003,-1.2999,-1.299,-1.2975,-1.2968,-1.2956,-1.295,-1.2938,-1.293,-1.2921,-1.2908,-1.2907,-1.2896,-1.2891,-1.289,-1.2891,-1.2888,-1.2888,-1.2894,-1.2885,-1.2885,-1.2885,-1.2885,0,-1.3063,-1.3055,-1.3035,-1.3028,-1.3019,-1.3005,-1.2996,-1.2986,-1.2974,-1.2966,-1.2954,-1.2946,-1.293,-1.2921,-1.2911,-1.2902,-1.2899,-1.2893,-1.2891,-1.2894,-1.2895,-1.2889,-1.2888,-1.2885,-1.2885,-1.2885,-1.2885,0,-1.3071,-1.3057,-1.3044,-1.3026,-1.3021,-1.3015,-1.2999,-1.2993,-1.2983,-1.2972,-1.2969,-1.2953,-1.2942,-1.2928,-1.2913,-1.2906,-1.2898,-1.2894,-1.2902,-1.29,-1.29,-1.2901,-1.2902,-1.2901,-1.2894,-1.2894,-1.2894,0,-1.3072,-1.3065,-1.3046,-1.3039,-1.3031,-1.302,-1.3012,-1.2999,-1.2991,-1.2975,-1.297,-1.2958,-1.2948,-1.293,-1.2918,-1.2906,-1.2902,-1.2903,-1.29,-1.2904,-1.2902,-1.2902,-1.2901,-1.2904,-1.2904,-1.2904,-1.2904,0,-1.3074,-1.3068,-1.3057,-1.3044,-1.3034,-1.3024,-1.3012,-1.3008,-1.2992,-1.2984,-1.2972,-1.2964,-1.2948,-1.2937,-1.2924,-1.2915,-1.2907,-1.2906,-1.2905,-1.2907,-1.2912,-1.291,-1.2904,-1.2905,-1.2905,-1.2905,-1.2905,-1.2905,-1.3078,-1.3072,-1.3057,-1.3046,-1.3036,-1.3026,-1.3019,-1.3008,-1.2998,-1.2984,-1.2977,-1.2965,-1.2952,-1.2934,-1.2926,-1.2917,-1.2915,-1.2913,-1.2913,-1.2913,-1.2914,-1.2915,-1.2915,-1.2915,-1.2915,-1.2915,-1.2915,0,-1.308,-1.307,-1.306,-1.3044,-1.3035,-1.3029,-1.3016,-1.3009,-1.2999,-1.2988,-1.2978,-1.2965,-1.2954,-1.2941,-1.2929,-1.2925,-1.2921,-1.2922,-1.2922,-1.292,-1.2917,-1.2919,-1.2926,-1.2926,-1.2926,-1.2926,-1.2926,-1.2926,-1.308,-1.3069,-1.3061,-1.3046,-1.3036,-1.3025,-1.3018,-1.3009,-1.3,-1.2986,-1.2977,-1.2969,-1.2957,-1.2944,-1.2934,-1.2931,-1.2927,-1.2929,-1.2925,-1.2922,-1.2921,-1.292,-1.2921,-1.2929,-1.2929,-1.2929,-1.2929,-1.2929]},{"header":{"parameterUnit":"m.s-1","parameterCategory":1,"la1":30.2991,"la2":30.254,"lo1":-89.0895,"lo2":-89.0444,"dy":0.0017,"dx":0.0017,"nx":28,"ny":28,"refTime":"2024-02-20T03:00:00:Z","depth":0,"parameterNumber":3,"parameterNumberName":"V-component_of_WINDS"},"data":[0,0,0,0,0,0,0,0,0,0,0,0,0,0,0,0,0,0,0,0,0,0,0,0,0,0,0,0,0,0,0,0,0,0,0,0,0,0,0,0,0,0,0,0,0,0,0,0,0,0,0,0,0,0,0,0,0,0,3.88,3.88,0,3.8843,3.8844,3.8844,3.8828,3.8827,3.8826,3.8825,3.8865,3.8867,3.8869,0,0,0,0,0,0,0,0,0,0,0,0,0,3.8698,3.87,3.88,3.88,3.8801,3.8843,3.8844,3.8844,3.8828,3.8827,3.8825,3.8824,3.8864,3.8866,3.8869,0,0,0,0,0,0,0,0,0,0,0,0,0,3.8742,3.87,3.88,3.8798,3.8798,3.8843,3.8844,3.8844,3.8828,3.8827,3.8825,3.8824,3.8863,3.8866,3.8869,3.8917,0,0,3.8878,3.888,0,0,0,0,0,0,0,0,3.8739,3.8745,3.8798,3.8798,3.8798,3.8829,3.8822,3.8869,3.8828,3.8817,3.8825,3.8823,3.8854,3.8857,3.8869,3.8919,3.8921,3.8879,3.888,3.8882,3.8882,0,0,0,0,0,0,0,3.8736,3.8743,3.8817,3.8798,3.8799,3.8793,3.8798,3.8831,3.8843,3.8817,3.8816,3.8822,3.8854,3.8866,3.8869,3.8921,3.8878,3.8881,3.8883,3.8884,3.9012,3.9013,0,0,0,0,0,0,3.8734,3.8741,3.8815,3.8818,3.8765,3.8796,3.8801,3.882,3.8842,3.8844,3.8823,3.8821,3.8861,3.8866,3.8871,3.8928,3.8882,3.8884,3.8886,3.901,3.9012,3.9014,0,0,0,0,0,0,3.8731,3.874,3.8814,3.8779,3.8788,3.88,3.8821,3.8822,3.8834,3.8847,3.8848,3.8834,3.886,3.8866,3.8906,3.8929,3.8886,3.8888,3.9008,3.9011,3.9013,3.9042,0,0,0,0,0,0,3.8729,3.874,3.8759,3.878,3.879,3.885,3.8822,3.8824,3.884,3.8837,3.8857,3.8859,3.886,3.8901,3.8909,3.8932,3.8891,3.9006,3.9009,3.9012,3.9039,3.9045,3.9051,0,0,0,0,0,3.8725,3.8765,3.876,3.8769,3.8815,3.8851,3.8857,3.8858,3.8842,3.8861,3.8868,3.8858,3.8925,3.8905,3.8914,3.8938,3.9005,3.9008,3.9012,3.9037,3.9044,3.905,0,0,0,0,0,0,3.8746,3.8768,3.8763,3.8811,3.8829,3.8848,3.8872,3.8866,3.8888,3.8885,3.8884,3.8889,3.8929,3.8937,3.8915,3.8985,3.8962,3.8968,3.8978,3.8985,3.8991,3.8988,3.8893,0,0,0,0,0,3.8756,3.8785,3.8802,3.8843,3.8852,3.8861,3.8876,3.8876,3.8894,3.8901,3.8912,3.8929,3.8954,3.897,3.8993,3.904,3.9044,3.9061,3.9067,3.9071,3.9076,3.91,3.9108,3.9026,3.9025,3.9025,0,0,3.8777,3.8793,3.8811,3.8847,3.8862,3.889,3.8867,3.8898,3.8919,3.8906,3.8944,3.8952,3.8971,3.9014,3.9033,3.9022,3.9099,3.9076,3.9079,3.9082,3.9105,3.9112,3.9119,3.9028,3.9028,3.9027,0,0,3.8831,3.8846,3.8882,3.8896,3.8918,3.8924,3.8932,3.8952,3.8957,3.8995,3.8986,3.9009,3.9052,3.9065,3.9078,3.9135,3.9126,3.9143,3.9172,3.9196,3.9203,3.9208,3.9228,3.9236,3.9147,3.9148,3.9148,0,3.8854,3.8898,3.89,3.8932,3.8948,3.8938,3.8973,3.8987,3.9015,3.9025,3.9012,3.9065,3.9077,3.9123,3.9137,3.9148,3.9156,3.9141,3.9202,3.9208,3.9213,3.9232,3.9239,3.9149,3.9149,3.9149,3.9149,0,3.8926,3.8956,3.8982,3.901,3.9029,3.9062,3.9067,3.9085,3.9083,3.9089,3.9127,3.9141,3.9166,3.9177,3.9175,3.9222,3.9214,3.9202,3.9179,3.9223,3.924,3.9248,3.9152,3.9151,3.9151,3.915,0,0,3.8994,3.9023,3.9033,3.9045,3.9068,3.9091,3.9122,3.9149,3.9164,3.9183,3.9209,3.9245,3.9234,3.9248,3.9246,3.9267,3.9311,3.9252,3.9252,3.9262,3.9363,3.9372,3.9381,3.9305,3.9307,3.9308,3.9361,0,3.9049,3.9107,3.9109,3.9162,3.9189,3.9179,3.9207,3.9223,3.9229,3.9252,3.9257,3.9283,3.9266,3.9275,3.9295,3.9302,3.9331,3.9298,3.9328,3.9329,3.9324,3.939,3.9401,3.9451,3.9368,3.937,3.9371,0,3.9122,3.9145,3.92,3.9218,3.923,3.9255,3.9278,3.9301,3.9318,3.9321,3.9336,3.9332,3.9362,3.9339,3.938,3.9357,3.937,3.9375,3.9376,3.9379,3.9353,3.9395,3.9467,3.9474,3.9382,3.9381,3.938,0,3.9166,3.921,3.9249,3.9259,3.9282,3.93,3.9309,3.9326,3.9341,3.9361,3.9371,3.9394,3.9406,3.9424,3.9425,3.9407,3.9466,3.9443,3.9468,3.9468,3.9481,3.9481,3.9556,3.949,3.949,3.9489,3.9489,0,3.9227,3.9261,3.9269,3.9292,3.9329,3.933,3.9367,3.9375,3.9389,3.9413,3.9405,3.9428,3.9428,3.945,3.9451,3.9485,3.949,3.9493,3.9492,3.9493,3.9493,3.9501,3.9498,3.9491,3.9491,3.9491,3.949,0,3.9283,3.9289,3.9331,3.9349,3.9354,3.938,3.9395,3.9417,3.9422,3.9452,3.9459,3.9466,3.9492,3.9495,3.9524,3.9525,3.9566,3.9562,3.956,3.956,3.9585,3.9583,3.9669,3.968,3.9606,3.9607,3.9607,0,3.9322,3.9348,3.9369,3.9385,3.9396,3.9422,3.9438,3.9439,3.9456,3.9477,3.9496,3.9521,3.9541,3.9582,3.9589,3.9611,3.9608,3.9636,3.9611,3.9611,3.9608,3.9606,3.9608,3.9641,3.9642,3.9643,3.9643,0,3.939,3.9392,3.9416,3.9441,3.946,3.9479,3.9497,3.951,3.9514,3.9532,3.9559,3.9575,3.9605,3.963,3.9651,3.966,3.9652,3.9651,3.9658,3.966,3.9658,3.9659,3.9573,3.9649,3.9649,3.9648,3.9648,3.9648,3.9439,3.9461,3.9479,3.9506,3.9519,3.9536,3.9557,3.9565,3.9588,3.9614,3.9612,3.9642,3.9657,3.9685,3.9695,3.9717,3.9707,3.9718,3.972,3.9723,3.9725,3.9654,3.9721,3.9721,3.972,3.972,3.972,0,3.9506,3.9517,3.9542,3.9567,3.9588,3.958,3.9599,3.9616,3.9642,3.9658,3.9678,3.9708,3.9731,3.974,3.9763,3.9778,3.9775,3.9784,3.9783,3.9785,3.9733,3.9724,3.9786,3.9786,3.9786,3.9786,3.9786,3.9786,3.9544,3.9581,3.9585,3.9628,3.9638,3.9668,3.9679,3.9694,3.9706,3.9741,3.9761,3.9767,3.9779,3.9802,3.9823,3.9825,3.9833,3.9844,3.9844,3.9795,3.9788,3.9782,3.9774,3.9846,3.9846,3.9894,3.9894,3.9895]}]]